TimeMST,TemperatureF,Dew PointF,Humidity,Sea Level PressureIn,VisibilityMPH,Wind Direction,Wind SpeedMPH,Gust SpeedMPH,PrecipitationIn,Events,Conditions,WindDirDegrees,DateUTC
12:04 AM,10.4,6.8,85,30.13,2.5,Calm,Calm,-,0.00,Snow,Light Snow,0,2013-01-15 07:04:00
12:25 AM,8.6,6.8,92,30.14,3.0,Calm,Calm,-,0.00,Snow,Light Snow,0,2013-01-15 07:25:00
12:33 AM,8.6,5.0,85,30.15,4.0,Calm,Calm,-,0.00,Snow,Light Snow,0,2013-01-15 07:33:00
12:53 AM,8.6,6.8,92,30.15,8.0,Calm,Calm,-,N/A,,Overcast,0,2013-01-15 07:53:00
1:28 AM,8.6,6.8,92,30.17,2.5,Calm,Calm,-,0.00,Snow,Light Snow,0,2013-01-15 08:28:00
1:37 AM,10.4,6.8,85,30.17,1.8,Calm,Calm,-,0.00,Snow,Light Snow,0,2013-01-15 08:37:00
1:46 AM,10.4,6.8,85,30.18,3.0,Calm,Calm,-,0.00,Snow,Light Snow,0,2013-01-15 08:46:00
1:53 AM,10.0,7.0,87,30.46,8.0,Calm,Calm,-,0.00,,Overcast,0,2013-01-15 08:53:00
2:17 AM,10.4,8.6,92,30.18,10.0,Calm,Calm,-,N/A,,Overcast,0,2013-01-15 09:17:00
2:53 AM,10.0,7.0,87,30.45,10.0,Calm,Calm,-,N/A,,Overcast,0,2013-01-15 09:53:00
3:43 AM,10.4,6.8,85,30.19,10.0,Calm,Calm,-,N/A,,Overcast,0,2013-01-15 10:43:00
3:53 AM,10.9,7.0,84,30.46,10.0,NNW,3.5,-,N/A,,Overcast,330,2013-01-15 10:53:00
4:53 AM,10.4,6.8,85,30.18,10.0,SSE,3.5,-,N/A,,Overcast,150,2013-01-15 11:53:00
5:53 AM,12.0,9.0,88,30.45,10.0,Calm,Calm,-,N/A,,Overcast,0,2013-01-15 12:53:00
6:53 AM,12.9,9.0,84,30.47,10.0,Calm,Calm,-,N/A,,Overcast,0,2013-01-15 13:53:00
7:53 AM,14.0,10.0,84,30.48,10.0,North,4.6,-,N/A,,Overcast,360,2013-01-15 14:53:00
8:53 AM,15.1,10.0,80,30.49,10.0,North,3.5,-,N/A,,Overcast,350,2013-01-15 15:53:00
9:53 AM,18.0,12.0,78,30.48,10.0,NW,4.6,-,N/A,,Overcast,320,2013-01-15 16:53:00
10:48 AM,19.4,12.2,74,30.25,2.5,NNW,4.6,-,N/A,,Haze,330,2013-01-15 17:48:00
10:50 AM,19.4,12.2,74,30.25,0.8,NW,4.6,-,N/A,,Haze,320,2013-01-15 17:50:00
10:53 AM,19.9,12.9,74,30.48,1.0,NW,4.6,-,N/A,,Haze,310,2013-01-15 17:53:00
11:05 AM,19.4,14.0,80,30.25,10.0,WNW,3.5,-,N/A,,Overcast,300,2013-01-15 18:05:00
11:13 AM,19.4,14.0,80,30.26,1.5,NW,5.8,-,N/A,,Haze,310,2013-01-15 18:13:00
11:37 AM,21.2,15.8,80,30.25,0.5,NNW,3.5,-,N/A,,Haze,340,2013-01-15 18:37:00
11:53 AM,23.0,16.0,74,30.48,1.0,North,4.6,-,N/A,,Haze,10,2013-01-15 18:53:00
12:00 PM,24.8,15.8,69,30.25,0.5,NNE,6.9,-,N/A,,Haze,20,2013-01-15 19:00:00
12:04 PM,24.8,15.8,69,30.25,2.5,North,5.8,-,N/A,,Haze,10,2013-01-15 19:04:00
12:11 PM,24.8,15.8,69,30.26,1.2,North,5.8,-,N/A,,Haze,10,2013-01-15 19:11:00
12:32 PM,24.8,17.6,74,30.25,2.5,North,3.5,-,N/A,,Haze,360,2013-01-15 19:32:00
12:37 PM,26.6,17.6,69,30.25,0.8,North,3.5,-,N/A,,Haze,360,2013-01-15 19:37:00
12:49 PM,26.6,17.6,69,30.26,2.0,NNW,5.8,-,N/A,,Haze,340,2013-01-15 19:49:00
12:53 PM,26.1,17.1,69,30.48,2.0,NNW,5.8,-,N/A,,Haze,330,2013-01-15 19:53:00
1:00 PM,24.8,17.6,74,30.27,10.0,NW,6.9,-,N/A,,Overcast,310,2013-01-15 20:00:00
1:06 PM,24.8,17.6,74,30.27,1.2,NW,6.9,-,N/A,,Haze,320,2013-01-15 20:06:00
1:37 PM,26.6,17.6,69,30.28,10.0,NW,5.8,-,N/A,,Overcast,310,2013-01-15 20:37:00
1:53 PM,26.1,18.0,71,30.48,10.0,NW,5.8,-,N/A,,Overcast,310,2013-01-15 20:53:00
2:44 PM,28.4,19.4,69,30.28,10.0,NW,10.4,-,N/A,,Overcast,320,2013-01-15 21:44:00
2:53 PM,28.0,19.9,72,30.48,10.0,NW,9.2,-,N/A,,Overcast,320,2013-01-15 21:53:00
3:53 PM,27.0,19.0,72,30.50,10.0,NW,8.1,-,N/A,,Scattered Clouds,310,2013-01-15 22:53:00
4:53 PM,24.1,18.0,77,30.51,10.0,NW,6.9,-,N/A,,Partly Cloudy,320,2013-01-15 23:53:00
5:53 PM,18.0,15.1,88,30.55,10.0,NNW,6.9,-,N/A,,Clear,340,2013-01-16 00:53:00
6:53 PM,18.0,16.0,92,30.55,10.0,Calm,Calm,-,N/A,,Clear,0,2013-01-16 01:53:00
7:53 PM,12.9,10.0,88,30.57,10.0,WNW,3.5,-,N/A,,Clear,300,2013-01-16 02:53:00
8:53 PM,8.1,6.1,92,30.58,9.0,Calm,Calm,-,N/A,,Clear,0,2013-01-16 03:53:00
9:53 PM,3.9,1.9,91,30.59,10.0,Calm,Calm,-,N/A,,Clear,0,2013-01-16 04:53:00
10:06 PM,1.4,-0.4,92,30.33,10.0,SE,5.8,-,N/A,,Partly Cloudy,130,2013-01-16 05:06:00
10:53 PM,3.0,-0.0,87,30.60,8.0,SE,5.8,-,N/A,,Partly Cloudy,130,2013-01-16 05:53:00
11:53 PM,3.0,-0.0,87,30.59,10.0,Calm,Calm,-,N/A,,Clear,0,2013-01-16 06:53:00